Regional Weather Roundup
Issued by NWS Sterling, VA

Home | Current Version | Previous Version | Graphics & Text | Print | Product List | Glossary On
Versions: 1 2 3 4 5 6 7 8 9 10 11 12 13 14 15 16 17 18 19 20 21 22 23 24 25 26 27 28 29 30 31 32 33 34 35 36 37 38 39 40 41 42 43 44 45 46 47 48 49 50
000
ASUS41 KLWX 281010
RWRLWX

REGIONAL WEATHER ROUNDUP
NATIONAL WEATHER SERVICE BALTIMORE MD/WASHINGTON DC
600 AM EDT THU MAY 28 2015

Note: "FAIR" indicates few or no clouds below 12,000 feet
with no significant weather and/or obstructions to visibility.
 TC=TEMPERATURE CELSIUS

 * =Non NWS site. Station does not report precipitation (e.g. rain,
    snow, etc.), thunder, or fog.

DCZ001-MDZ009-015-VAZ040>042-051-053>054-281100-
WASHINGTON METRO

CITY           SKY/WX    TMP DP  RH WIND       PRES   REMARKS
WASHINGTON NAT MOCLDY    74  67  78 S9        30.15R
DULLES         MOCLDY    67  67 100 CALM      30.14R
ANDREWS AFB    PTCLDY    69  69  97 S7        30.15R
FT BELVOIR     PTCLDY    65  64  96 SE5       30.15R
QUANTICO       PTCLDY    72  66  81 S12       30.16R
COLLEGE PARK*  PTCLDY    68  68 100 CALM      30.14R
LEESBURG*      CLEAR     68  68 100 CALM      30.15R
MANASSAS*      PTCLDY    63  63 100 CALM      30.15R
GAITHERSBURG*  CLEAR     68  64  88 CALM      30.19R

$$

MDZ006>007-011-014-281100-
BALTIMORE METRO

CITY           SKY/WX    TMP DP  RH WIND       PRES   REMARKS
BWI AIRPORT    MOCLDY    68  66  93 CALM      30.14R
MD SCIENCE CTR   N/A     71  68  90 MISG      30.15R
MARTIN STATE   PTCLDY    72  72 100 SE3       30.16R
ANNAPOLIS      PTCLDY    70  67  90 S3        30.14R
FORT MEADE*    PTCLDY    63  61  94 CALM      30.17R

$$

MDZ012-015-019>023-281100-
MARYLAND EASTERN SHORE

CITY           SKY/WX    TMP DP  RH WIND       PRES   REMARKS
OCEAN CITY     PTCLDY    67  64  90 SW10      30.19R
SALISBURY      MOCLDY    67  66  97 SE5       30.18R
BAY BRIDGE AP*   N/A    N/A N/A N/A S6        30.15R
CAMBRIDGE*     PTCLDY    72  68  88 S6        30.16R
EASTON*        MOCLDY    73  73 100 S6        30.19R

$$

MDZ017>025-281100-
SOUTHERN MARYLAND

CITY           SKY/WX    TMP DP  RH WIND       PRES   REMARKS
PATUXENT RIVER MOCLDY    72  67  84 SW9       30.15R
ST INIGOES     PTCLDY    72  68  87 CALM      30.16R
LEONARDTOWN*   MOCLDY    70  64  83 SW6       30.17S

$$

MDZ003>005-281100-
NORTH CENTRAL MARYLAND

CITY           SKY/WX    TMP DP  RH WIND       PRES   REMARKS
FREDERICK*     NOT AVBL
HAGERSTOWN APT PTCLDY    68  64  87 CALM      30.15R
WESTMINSTER*   CLEAR     68  66  94 CALM      30.15R

$$

MDZ501>502-281100-
WESTERN MARYLAND

CITY           SKY/WX    TMP DP  RH WIND       PRES   REMARKS
OAKLAND*       MOCLDY    61 N/A N/A W8        30.25S
CUMBERLAND*    CLOUDY    61  61 100 CALM      30.20R VSB<1/4

$$

VAZ025>031-281100-
SHENANDOAH VALLEY

CITY           SKY/WX    TMP DP  RH WIND       PRES   REMARKS
WINCHESTER*    CLEAR     68  61  77 SW5       30.16R
FRONT ROYAL*   FAIR      64  63  94 S6        30.15R
LURAY*         FAIR      63  63 100 CALM      30.18R
NEW MARKET*    FAIR      61  60  99 CALM      30.17R
STAUNTON*      PTCLDY    63  60  92 CALM      30.21R
WAYNESBORO*    FAIR      60  60  97 CALM      30.20S

$$

WVZ021-048>050-054>055-281100-
EASTERN WEST VIRGINIA PANHANDLE

CITY           SKY/WX    TMP DP  RH WIND       PRES   REMARKS
MARTINSBURG    CLEAR     63  61  93 CALM      30.16R FOG
PETERSBURG*    PTCLDY    58  56  92 CALM      30.20R FOG

$$

VAZ036>039-050-281100-
CENTRAL FOOTHILLS

CITY           SKY/WX    TMP DP  RH WIND       PRES   REMARKS
CHARLOTTESVILL CLEAR     65  63  93 SW5       30.15R
CULPEPER*      CLEAR     62  62  99 CALM      30.16R FOG
ORANGE*        CLEAR     64  63  94 CALM      30.16R
GORDONSVILLE*  FAIR      63  62  97 CALM      30.15R
WARRENTON*     FAIR      64  64  99 CALM      30.15R FOG

$$

VAZ055>057-281100-
NORTH AND CENTRAL PIEDMONT

CITY           SKY/WX    TMP DP  RH WIND       PRES   REMARKS
FREDERICKSBRG* PTCLDY    70  69  96 SE5       30.15R
STAFFORD*      PTCLDY    67  64  91 S6        30.19R

$$

NCZ024-NYZ072-PAZ021-071-VAZ022-071-281100-
OTHER REGIONAL OBSERVATIONS

CITY           SKY/WX    TMP DP  RH WIND       PRES   REMARKS
NEW YORK CITY  CLOUDY    71  66  84 VRB3      30.17R
PHILADELPHIA   CLOUDY    70  67  90 SE3       30.15R
PITTSBURGH     MOCLDY    61  58  90 CALM      30.19R
ROANOKE        PTCLDY    64  62  93 CALM      30.22R
RICHMOND       MOCLDY    71  68  90 S5        30.17R
RALEIGH        CLOUDY    69  67  93 S7        30.21R FOG

$$

ANZ530>537-281100-
MARINE OBSERVATIONS

STATION/POSITION TIME  TEMP    WIND        PRES
                       AIR SEA DIR/SP/G
                 (UTC) (F)     (DEG/KT/KT) (MB)
THOMAS PT LIGHT  1000   70 70  200/ 10/ 11 1021.5R
BALT KEY BRIDGE  0900   72     180/  8/  9 1019.7R
COVE POINT       0900   71     240/ 12/ 16 1021.3R
LEWISETTA        0900   73 75              1020.7S
SOLOMONS ISLAND  0900      70                N/A
PINEY POINT      0900          230/ 12/ 14   N/A

$$




USA.gov is the U.S. government's official web portal to all federal, state and local government web resources and services.